BREEZE-KM DEB, 41723

Orbit data source: Space-Track

BREEZE-KM DEB, 41723 is space debris in LEO originally from a launch on Tue, 31 Mar 2015 UTC launched from the Plesetsk Missile And Space Complex (PKMTR). Debris objects in space refer to the collection of defunct objects orbiting the Earth. Examples of debris include non-operational satellites, rocket bodies, and fragments generated from explosions, collisions, or faulty payload assembly.

Loading next visibility...
BREEZE-KM DEB details
Identifier
41723, 2015-020L
Orbit
LEO
Last TLE update3 days ago
Origin
Flag of CISVVKO VKS (CIS)
ManufacturerKhrunichev
MissionSpacecraft
Bus & MotorUnknown
MassUnknown
Launch date (UTC)
2015-03-31 (10 years ago)
Launch vehicleUnknown
Launch site
Plesetsk Missile And Space Complex (PKMTR)
Object type
Payload
Rocket body
Debris
Shape & HBRUnknown
Radar Cross SectionSmall (<0.1 m²)

Expand to show TLE details & history

TLE from 3 days ago
0 BREEZE-KM DEB
1 41723U 15020L   24344.21959103  .00000415  00000-0  13283-2 0  9991
2 41723  82.4870 167.6992 0220309 111.1228 251.3583 12.92610713427620
Epoch: 2024-12-09T05:16Z
Definitive object data (Epoch: 2024-12-09T05:16:12.664Z)
Latitude-0.00004°
Longitude10.20031°
Altitude1,351.279 km
Speed7.156 km/s
True Right ascension11h 10m 47s
True Declination0° 00' 00"
Sunlit
Object was in daylight at TLE epoch
Visualization TLE readout
Latitude-31.89997°
Longitude-166.99542°
Altitude1,350.227 km
Speed7.16 km/s
Apparent Right ascension02h 16m 45s
Apparent Declination-70° 23' 57"
Sunlit
Object is in daylight
Visualization observer readout
Local Sidereal Time21:45:34
Azimuth158.875° S
Elevation-30.481°
Doppler factor1
Orbital elements
Apogee altitude1,457.361 km
Perigee altitude1,119.557 km
Semi-major axis7,666.596 km
Eccentricity0.0220309
Inclination82.487°
RAAN167.6992°
Arg. of periapsis111.1228°
True anomaly248.98775°
Mean anomaly251.3583°
Eccentric anomaly250.17086°
Mean motion3.23325 °/min
BSTAR0.0013283
Orbital period111.34 mins
Loading maneuver chart data...
Loading historical data...
Loading historical data...
Loading historical data...
Loading historical data...
Loading historical data...
Loading historical data...
Loading historical data...

BREEZE-KM DEB Visibility forecast

Observer location: undefined°, undefined

Span
Click to sort rows by Start time (UTC) header in descending order
Start Az.
Max El. time (UTC)
Max El. Az.
Max El.
End time (UTC)
End Az.
13 mins2024-12-12 00:44:24.483Z341.024° N2024-12-12 00:51:24.483Z256.658° W36.911°2024-12-12 00:57:24.483Z197.873° SSW
8 mins2024-12-12 11:26:24.483Z116.317° SE2024-12-12 11:29:24.483Z88.26° E19.461°2024-12-12 11:34:24.483Z41.327° NE
13 mins2024-12-12 13:15:24.483Z199.815° SSW2024-12-12 13:21:24.483Z272.808° WNW42.434°2024-12-12 13:28:24.483Z1.739° NNE
11 mins2024-12-12 23:02:24.483Z14.524° NNE2024-12-12 23:07:24.483Z70.375° E29.804°2024-12-12 23:13:24.483Z135.398° SSE
|